OBJECT C, 60747

Orbit data source: Space-Track

You're viewing an Uncataloged Satellite

Recently launched and/or uncataloged satellites may have evolving metadata. Metadata may include but not limited to: Owner, Maufacturer, Bus, Motor, and Mission.

OBJECT C, 60747 is a satellite owned by Yunyao yuhang (CN) in SSO that was launched on Thu, 29 Aug 2024 UTC via a GUSHENXING 1 launch vehicle from the Yellow Sea Launch Area, China (YSLA). Unknown objects in Earth's orbit typically refer to objects detected orbiting the Earth but have not yet been identified or cataloged. These objects could be anything from previously untracked satellites, spent rocket stages, debris from satellite collisions, or even natural meteoroids temporarily captured by Earth's gravity.

Loading next visibility...
Identifier
60747, 2024-153C
Orbit
SSO
Last TLE update
6 hours ago
Origin
Flag of CNYYAO (CN / PRC)
Manufacturer
Changguang WJ
Mission
Operational Commercial Weather
Bus & Motor
YY-1, Unknown motor
Mass
~50 kg wet, ~50 kg dry
Launch date (UTC)
2024-08-29 (10 months ago)
Launch vehicle
GUSHENXING 1
Launch site
Yellow Sea Launch Area, China (YSLA)
Object type
Unknown
Shape & HBR
Box + 1 Pan, 5 m
Radar Cross Section
5.339 m², Medium (>0.1 m² and < 1m²)

Expand to show TLE details & history

TLE from 6 hours ago
0 OBJECT C
1 60747U 24153C   25182.18334945  .00010567  00000-0  43813-3 0  9995
2 60747  97.6399 307.7480 0011859 314.5918  45.4350 15.24013794 46404
Epoch: 2025-07-01T04:24Z
TLE epoch observation values (Epoch: 2025-07-01T04:24:01.392Z)
Latitude
-0.00003°
Longitude
-37.74026°
Altitude
491.122 km
Speed
7.623 km/s
True Right ascension
20h 30m 59s
True Declination
0° 00' 00"
Sunlit
Object was in full shadow at epoch
Visualization orbit readout
Latitude
-2.42297°
Longitude
142.17086°
Altitude
502.563 km
Speed
7.61 km/s
Apparent Right ascension
08h 56m 56s
Apparent Declination
-20° 29' 41"
Sunlit
Object is in daylight
Visualization observer readout
Local Sidereal Time
21:33:55
Azimuth
24.872° NE
Elevation
-69.029°
Doppler factor
1
Orbital elements
Apogee altitude
498.865 km
Perigee altitude
482.573 km
Semi-major axis
6,868.856 km
Eccentricity
0.00119
Inclination
97.6399°
RAAN
307.748°
Arg. of periapsis
314.5918°
True anomaly
Unknown
Mean anomaly
45.435°
Eccentric anomaly
Unknown
Mean motion
3.81256 °/min
Orbital period
94.42 mins
BSTAR
0.00043813
Loading maneuver chart data...
Loading SW <> Apogee altitude chart data...
Loading historical data...
Loading historical data...
Loading historical data...
Loading historical data...
Loading historical data...
Loading historical data...
Loading historical data...

OBJECT C Visibility forecast

Observer location: undefined°, undefined°

Span
Click to sort rows by Start time (UTC) header in descending order
Start Az.
Max El. time (UTC)
Max El. Az.
Max El.
End time (UTC)
End Az.
6 mins2025-07-01 20:43:33.871Z36.243° NE2025-07-01 20:46:33.871Z101.121° ESE27.633°2025-07-01 20:49:33.871Z160.621° S
4 mins2025-07-02 08:54:33.871Z212.517° SW2025-07-02 08:56:33.871Z277.939° WNW29.633°2025-07-02 08:58:33.871Z322.12° NNW
|